Weather History for Grant County, OR

Change the Weather History Date:

Sunday, July 21, 2013

  Actual Average (KBNO) Record (KBNO)
Temperature  
Mean Temperature 75 °F 68 °F  
Max Temperature 96 °F 88 °F 103 °F (2006)
Min Temperature 54 °F 48 °F 36 °F (1972)
Degree Days  
Heating Degree Days 0 1  
Month to date heating degree days 47  
Since 1 June heating degree days 265  
Since 1 July heating degree days 47  
Cooling Degree Days 10 4  
Month to date cooling degree days 66  
Year to date cooling degree days 89  
Since 1 June cooling degree days 86  
Growing Degree Days 25 (Base 50)    
Moisture  
Dew Point 15 °F    
Average Humidity 14    
Maximum Humidity 33    
Minimum Humidity 4    
Precipitation  
Precipitation 0.00 in 0.02 in 1.00 in (1971)
Month to date precipitation 0.28  
Year to date precipitation 6.50  
Sea Level Pressure  
Sea Level Pressure 29.96 in    
Wind  
Wind Speed 7 mph (NNE)    
Max Wind Speed 16 mph    
Max Gust Speed 20 mph    
Visibility 10 miles    
Events      
T = Trace of Precipitation, MM = Missing Value Source: NWS Daily Summary

Daily Weather History Graph

Daily Weather History Graph

Search for Another Location

Airport:

Trip Planner

Search our weather history database for the weather conditions in past years. The results will help you decide how hot, cold, wet, or windy it might be!

Date:

Astronomy

Jul. 21, 2013 Rise Set
Actual Time 5:31 AM PDT 8:32 PM PDT
Civil Twilight 4:56 AM PDT 9:06 PM PDT
Nautical Twilight 4:12 AM PDT 9:50 PM PDT
Astronomical Twilight 3:19 AM PDT 10:43 PM PDT
Moon 7:32 PM PDT (7/21) 4:23 AM PDT (7/21)
Length of Visible Light 16h 09m
Length of Day
15h 00m
Waxing Gibbous, 99% of the Moon is Illuminated
Jul 21
Waxing Gibbous
Jul 22
Full
Jul 29
Last Quarter
Aug 6
New
Aug 14
First Quarter

Hourly Weather History & Observations

Time (PDT) Temp. Dew Point Humidity Pressure Visibility Wind Dir Wind Speed Gust Speed Precip Events Conditions
12:15 AM 72.3 °F 20.3 °F 14% 29.98 in 10.0 mi NNW 5.8 mph - N/A   Clear
12:35 AM 68.9 °F 20.3 °F 16% 29.99 in 10.0 mi Calm Calm - N/A   Clear
12:55 AM 66.6 °F 22.8 °F 19% 29.99 in 10.0 mi East 6.9 mph - N/A   Clear
1:15 AM 67.1 °F 24.8 °F 20% 29.99 in 10.0 mi East 5.8 mph - N/A   Clear
1:35 AM 65.1 °F 27.1 °F 24% 29.99 in 10.0 mi East 8.1 mph - N/A   Clear
1:55 AM 63.9 °F 24.6 °F 23% 29.98 in 10.0 mi East 6.9 mph - N/A   Clear
2:15 AM 62.6 °F 27.7 °F 27% 29.99 in 10.0 mi East 6.9 mph - N/A   Clear
2:35 AM 61.7 °F 27.0 °F 27% 29.99 in 10.0 mi ESE 5.8 mph - N/A   Clear
2:55 AM 61.0 °F 26.6 °F 27% 29.99 in 10.0 mi East 6.9 mph - N/A   Clear
3:15 AM 61.0 °F 26.8 °F 27% 29.99 in 10.0 mi East 8.1 mph - N/A   Clear
3:35 AM 60.3 °F 25.7 °F 27% 29.99 in 10.0 mi ESE 3.5 mph - N/A   Clear
3:55 AM 56.7 °F 26.4 °F 31% 29.98 in 10.0 mi East 8.1 mph - N/A   Clear
4:15 AM 58.6 °F 25.9 °F 29% 29.98 in 10.0 mi ESE 10.4 mph - N/A   Clear
4:35 AM 56.7 °F 26.2 °F 31% 29.98 in 10.0 mi East 10.4 mph - N/A   Clear
4:55 AM 56.8 °F 25.7 °F 30% 29.99 in 10.0 mi East 10.4 mph - N/A   Clear
5:15 AM 56.1 °F 25.5 °F 31% 29.99 in 10.0 mi SE 12.7 mph - N/A   Clear
5:35 AM 56.3 °F 25.5 °F 31% 29.99 in 10.0 mi East 10.4 mph - N/A   Clear
5:55 AM 54.5 °F 24.8 °F 32% 30.00 in 10.0 mi ESE 11.5 mph - N/A   Clear
6:15 AM 54.1 °F 25.5 °F 33% 30.00 in 10.0 mi ESE 8.1 mph - N/A   Clear
6:35 AM 55.6 °F 25.5 °F 31% 30.00 in 10.0 mi ESE 12.7 mph - N/A   Clear
6:55 AM 55.9 °F 25.9 °F 31% 30.01 in 10.0 mi SE 10.4 mph - N/A   Clear
7:15 AM 58.1 °F 25.9 °F 29% 30.01 in 10.0 mi East 9.2 mph - N/A   Clear
7:35 AM 60.1 °F 26.1 °F 27% 30.01 in 10.0 mi ESE 11.5 mph - N/A   Clear
7:55 AM 62.6 °F 27.7 °F 27% 30.01 in 10.0 mi East 6.9 mph - N/A   Clear
8:15 AM 65.3 °F 26.6 °F 23% 30.01 in 10.0 mi ESE 8.1 mph - N/A   Clear
8:35 AM 67.3 °F 27.3 °F 22% 30.01 in 10.0 mi East 5.8 mph - N/A   Clear
9:35 AM 74.1 °F 21.0 °F 14% 30.01 in 10.0 mi ESE 3.5 mph - N/A   Unknown
9:55 AM 76.5 °F 15.1 °F 10% 30.00 in 10.0 mi Calm Calm - N/A   Clear
10:15 AM 78.6 °F 12.6 °F 8% 30.00 in 10.0 mi Calm Calm - N/A   Clear
11:15 AM 83.1 °F 6.6 °F 5% 29.99 in 10.0 mi Calm Calm - N/A   Clear
11:35 AM 84.6 °F 6.3 °F 5% 29.98 in 10.0 mi Calm Calm - N/A   Clear
11:55 AM 84.7 °F -2.9 °F 4% 29.98 in 10.0 mi Calm Calm - N/A   Clear
12:15 PM 86.0 °F 3.0 °F 4% 29.97 in 10.0 mi Calm Calm - N/A   Clear
12:35 PM 88.7 °F 8.6 °F 5% 29.96 in 10.0 mi WNW 4.6 mph - N/A   Clear
12:55 PM 89.6 °F 2.1 °F 4% 29.96 in 10.0 mi West 9.2 mph - N/A   Clear
1:15 PM 90.1 °F 5.5 °F 4% 29.96 in 10.0 mi West 9.2 mph - N/A   Clear
1:35 PM 90.9 °F 3.7 °F 4% 29.95 in 10.0 mi WNW 10.4 mph - N/A   Clear
1:55 PM 92.5 °F -6.2 °F 4% 29.95 in 10.0 mi West 9.2 mph - N/A   Clear
2:15 PM 93.4 °F -5.8 °F 4% 29.94 in 10.0 mi West 9.2 mph - N/A   Clear
2:35 PM 93.7 °F -12.1 °F 4% 29.94 in 10.0 mi West 10.4 mph 17.3 mph N/A   Clear
2:55 PM 93.7 °F -2.2 °F 4% 29.94 in 10.0 mi WNW 10.4 mph 17.3 mph N/A   Clear
3:15 PM 94.6 °F -0.9 °F 4% 29.93 in 10.0 mi WSW 9.2 mph 19.6 mph N/A   Clear
3:35 PM 95.4 °F 4.5 °F 4% 29.93 in 10.0 mi WNW 13.8 mph - N/A   Clear
3:55 PM 96.4 °F 7.3 °F 4% 29.92 in 10.0 mi WNW 16.1 mph - N/A   Clear
4:15 PM 96.1 °F 7.7 °F 4% 29.92 in 10.0 mi WNW 12.7 mph 17.3 mph N/A   Clear
4:35 PM 95.5 °F 8.1 °F 4% 29.91 in 10.0 mi West 13.8 mph - N/A   Clear
4:55 PM 95.9 °F 9.3 °F 4% 29.91 in 10.0 mi WNW 11.5 mph 19.6 mph N/A   Clear
5:15 PM 95.7 °F 9.9 °F 4% 29.90 in 10.0 mi West 12.7 mph - N/A   Clear
5:35 PM 95.5 °F 10.8 °F 4% 29.90 in 10.0 mi WNW 10.4 mph - N/A   Clear
5:55 PM 94.8 °F 10.2 °F 4% 29.90 in 10.0 mi West 12.7 mph 17.3 mph N/A   Clear
6:15 PM 94.5 °F 9.9 °F 4% 29.90 in 10.0 mi WNW 11.5 mph - N/A   Clear
6:35 PM 93.4 °F 8.8 °F 4% 29.90 in 10.0 mi NNW 11.5 mph 18.4 mph N/A   Clear
6:55 PM 92.7 °F 8.6 °F 4% 29.90 in 10.0 mi NNW 12.7 mph 16.1 mph N/A   Clear
7:15 PM 91.0 °F 7.5 °F 4% 29.91 in 10.0 mi NNW 12.7 mph - N/A   Clear
7:35 PM 89.4 °F 8.4 °F 5% 29.91 in 10.0 mi NNW 9.2 mph - N/A   Clear
7:55 PM 88.3 °F 8.6 °F 5% 29.92 in 10.0 mi NW 9.2 mph 17.3 mph N/A   Clear
8:15 PM 85.5 °F 9.5 °F 6% 29.92 in 10.0 mi NW 5.8 mph - N/A   Clear
8:35 PM 82.8 °F 9.0 °F 6% 29.93 in 10.0 mi WNW 4.6 mph - N/A   Clear
8:55 PM 81.3 °F 9.5 °F 7% 29.94 in 10.0 mi SSW 4.6 mph - N/A   Clear
9:15 PM 79.5 °F 9.5 °F 7% 29.94 in 10.0 mi West 3.5 mph - N/A   Clear
9:35 PM 81.5 °F 9.5 °F 7% 29.95 in 10.0 mi Calm Calm - N/A   Clear
9:55 PM 81.1 °F 9.9 °F 7% 29.95 in 10.0 mi Calm Calm - N/A   Clear
10:15 PM 79.7 °F 10.2 °F 7% 29.95 in 10.0 mi Calm Calm - N/A   Clear
10:35 PM 78.1 °F 10.8 °F 8% 29.96 in 10.0 mi Calm Calm - N/A   Clear
10:55 PM 77.7 °F 14.0 °F 9% 29.96 in 10.0 mi NW 3.5 mph - N/A   Clear
11:15 PM 74.8 °F 22.3 °F 14% 29.96 in 10.0 mi NW 5.8 mph - N/A   Clear
11:35 PM 71.8 °F 19.6 °F 14% 29.96 in 10.0 mi East 4.6 mph - N/A   Clear
11:55 PM 68.9 °F 19.0 °F 15% 29.97 in 10.0 mi East 6.9 mph - N/A   Clear